Location: Newark
(34.6283°N, 36.0776°E)
Time: 10:47:19
(UTC+00:00)

Tiros 1 despin weight - Pass Details

Date: 22 September 2019
Orbit: 593 x 643 km, 48.2° (Epoch: 21 October)

Event Time Altitude Azimuth Distance (km) Brightness Sun altitude
Rises 14:39:53 0° 311° (NW) 2,844 ? 10.1°
Reaches altitude 10° 14:42:16 10° 317° (NW) 1,934 ? 9.6°
Maximum altitude 14:46:32 46° 32° (NNE) 797 ? 8.8°
Drops below altitude 10° 14:50:46 10° 106° (ESE) 1,917 ? 7.9°
Sets 14:53:07 0° 112° (ESE) 2,816 ? 7.4°
